745  
ASUS44 KLUB 280910  
RWRTX  
WEST TEXAS WEATHER ROUNDUP  
NATIONAL WEATHER SERVICE LUBBOCK TX  
400 AM CDT TUE MAR 28 2017  
 
NOTE: "FAIR" INDICATES FEW OR NO CLOUDS BELOW 12,000 FEET WITH NO  
SIGNIFICANT WEATHER AND/OR S TO VISIBILITY
.  
 
TXZ004-006>008-010-012-014-016-OKZ002-281000-  
TEXAS PANHANDLE/OKLAHOMA PANHANDLE  
 
CITY SKY/WX TMP DP RH WIND PRES REMARKS
 
AMARILLO MOCLDY 51 45 79 SE24G31 29.87S  
BORGER CLOUDY 54 45 71 SE14G24 29.86S  
CANADIAN CLOUDY 50 47 90 SE8 29.88F  
DALHART PTCLDY 51 43 74 SE10 29.86F  
DUMAS PTCLDY 49 42 76 SE16 29.85S  
GUYMON LGT RAIN 50 45 83 SE8 29.86S  
HEREFORD CLOUDY 51 44 76 SE10G18 29.86F  
PAMPA MOCLDY 51 45 80 SE20 29.87S  
PERRYTON PTCLDY 50 46 84 SE14 29.88S  

 
 
TXZ026-029-035-045-048-281000-  
SOUTHERN PANHANDLE/SOUTH PLAINS/ROLLING PLAINS  
 
CITY SKY/WX TMP DP RH WIND PRES REMARKS
 
CHILDRESS CLOUDY 55 45 68 E9 29.86F  
SEMINOLE CLEAR 50 40 67 E5 29.77F  
LUBBOCK MOCLDY 55 45 68 E10 29.79F  
PLAINVIEW PTCLDY 51 44 75 E15 29.82F  
SNYDER MOCLDY 57 51 80 SE7 29.80F  

 
 
TXZ052-054-060>062-072-078-127-140-154-169-281000-  
PERMIAN BASIN/CONCHO VALLEY/BIG COUNTRY/EDWARDS PLATEAU  
 
CITY SKY/WX TMP DP RH WIND PRES REMARKS
 
ABILENE MOCLDY 62 57 83 SE15 29.80F  
BIG SPRING CLOUDY 65 57 76 SE16G24 29.78F  
BROWNWOOD MOCLDY 64 63 94 SE10 29.82F  
JUNCTION CLEAR 66 64 93 E8 29.79F FOG  
MIDLAND MOCLDY 64 51 62 SE14 29.74F  
ODESSA CLEAR 62 45 53 SE14 29.75F  
SAN ANGELO CLEAR 61 54 77 E5 29.77F  
SONORA CLOUDY 68 64 88 SE8G14 29.82F  
SWEETWATER CLOUDY 66 62 84 SE13 29.81F  
WINK CLOUDY 65 48 54 SE14 29.69F  

 
 
TXZ055-058-074-075-080-082-281000-  
FAR WEST/SOUTHWEST MOUNTAINS/TRANS PECOS  
 
CITY SKY/WX TMP DP RH WIND PRES REMARKS
 
ALPINE CLEAR 64 45 51 SW5 29.84F  
DRYDEN N/A 67 64 90 E8 29.73F  
EL PASO PTCLDY 63 27 25 S5 29.77F  
FORT STOCKTON CLEAR 65 60 84 S17 29.72F  
GUADALUPE PASS CLEAR 59 25 27 SW10 29.84F  
MARFA CLEAR 52 36 54 NW8 29.85R  
PECOS CLOUDY 59 39 47 CALM 29.71S  
PRESIDIO FAIR 67 33 27 N9 29.74S  

 
 
TXZ014-016-019-021>030-083-281000  
TEXAS TECH WEST TEXAS MESONET/TEXAS PANHANDLE/NORTHERN SOUTH PLAINS  
 
CITY SKY/WX TMP DP RH WIND PRES REMARKS
 
ABERNATHY 5ENE N/A 54 46 73 E12 29.82F  
AMARILLO 9NNE N/A 53 45 74 SE23 29.84R  
AMARILLO 7SSE N/A 50 43 77 E16 29.87F  
AMHERST 1NE N/A 51 43 73 E12 29.81F  
BOOTLEG 11WNW N/A 50 40 68 SE14 29.87F  
CANADIAN 6E N/A 49 45 87 E14 29.87S  
CAPROCK CYN SP N/A 51 45 80 E1 29.87F  
CHILDRESS 2NNE N/A 53 45 75 E12 29.86S  
CLARENDON 2WSW N/A 52 44 73 E10 29.87F  
CLAUDE 12SW N/A 51 44 77 SE15 29.87S  
DIMMITT 2NE N/A 45 39 79 E9 29.84F  
FLOYDADA 2NNE N/A 51 45 79 E10 29.84F  
FRIONA 2NE N/A 48 40 73 E6 29.85F  
GOODLETT 3W N/A 50 44 80 NE8 29.85S  
HART 3N N/A 48 42 80 E10 29.83F  
HEREFORD 2NW N/A 51 40 66 E8 29.85F  
MCLEAN 1E N/A 51 44 75 E13 29.88S  
MEMPHIS 1NE N/A 54 46 73 E6 29.87F  
MULESHOE 2SSW N/A 51 41 69 E10 29.81F  
OLTON 6S N/A 51 43 74 E10 29.82F  
PALO DURO SP N/A 51 43 74 SE12 29.88S  
PAMPA 2E N/A 48 44 87 SE14 29.88S  
PLAINVIEW 1S N/A 52 46 79 E8 29.83F  
SILVERTON 7ESE N/A 50 44 78 E12 29.86F  
TULIA 2ENE N/A 48 44 87 E9 29.85F  
TURKEY 2WSW N/A 51 46 81 E7 29.85F  
UMBARGER 3NNE N/A 49 43 79 SE14 29.87S  

 
 
TXZ033>036-039>041-045>048-281000  
TEXAS TECH WEST TEXAS MESONET/SOUTH PLAINS  
 
CITY SKY/WX TMP DP RH WIND PRES REMARKS
 
AIKEN 3WSW N/A 53 45 74 E13 29.84F  
ANDREWS 2NE N/A 54 40 57 E8 29.75F  
ANTON 6SSW N/A 53 44 72 E13 29.79F  
BROWNFIELD 2S N/A 55 44 67 E13 29.78F  
DENVR CTY 7WNW N/A 51 38 60 E9 29.76F  
GAIL 2ESE N/A 56 46 69 E2 29.78F  
LAMESA 2SE N/A 54 46 73 E7 29.78F  
LEVELLAND 4S N/A 51 41 68 E10 29.79F  
LUBBOCK 3WNW N/A 55 45 69 E10 29.80F  
MORTON 1ENE N/A 50 40 67 E8 29.80F  
ODONNELL 1N N/A 55 44 67 E7 29.78F  
PLAINS 3N N/A 50 39 66 E8 29.78F  
RALLS 1SE N/A 55 45 69 E12 29.82F  
REESE CENTER N/A 53 45 72 E14 29.79F  
SEAGRAVES 1SW N/A 53 42 64 E6 29.77F  
SEMINOLE 2NNE N/A 53 40 61 E8 29.76F  
SLATON 2NE N/A 53 45 74 E12 29.80F  
SNYDER 3E N/A 60 54 80 E8 29.79F  
SUNDOWN 8SW N/A 49 41 72 E7 29.78F  
TAHOKA 3NNE N/A 52 43 71 E7 29.79F  
WOLFFORTH 6SSW N/A 52 42 68 E13 29.78F  

 
 
TXZ031-032-036>038-042>044-281000-  
TEXAS TECH WEST TEXAS MESONET/ROLLING PLAINS  
 
CITY SKY/WX TMP DP RH WIND PRES REMARKS
 
ASPERMONT 3NE N/A 55 48 77 NE3 29.81F  
FLUVANNA 3WNW N/A 53 44 70 E8 29.79F  
GRAHAM 5SSW N/A 56 46 70 E9 29.79F  
GUTHRIE 10WSW N/A 53 45 75 NE6 29.82F  
HASKELL 1NW N/A 59 49 70 E7 29.81F  
JAYTON 1SSE N/A 53 46 78 NE7 29.80F  
KNOX CITY 3NW N/A 56 48 73 NE7 29.82F  
LK A HENRY 1NW N/A 54 44 69 E7 29.79F  
NORTHFIELD 1S N/A 52 46 82 E9 29.85F  
ODELL 4ENE N/A 53 47 82 E10 29.87F  
PADUCAH 10SW N/A 54 48 81 NE7 29.83F  
POST 1NE N/A 51 43 73 N3 29.80F  
RRING SPRGS 3N N/A 50 47 87 NE5 29.84F  
SEYMOUR 3NW N/A 59 52 76 E12 29.83F  
SPUR 1W N/A 53 46 75 NE7 29.80F  
WEINERT 2NNE N/A 59 51 74 E10 29.83F  
WHITE RVR 6NE N/A 54 45 70 NE9 29.81F  

 
 
TXZ052-054-060>062-072-078-127-140-154-169-281000-  
TEXAS TECH WEST TEXAS MESONET/PERMIAN BASIN/  
CONCHO VALLEY/BIG COUNTRY/EDWARDS PLATEAU  
 
CITY SKY/WX TMP DP RH WIND PRES REMARKS
 
COYANOSA 2N N/A 68 59 73 SE12 29.70F  
JUNCTION 1SSW N/A 66 65 95 E6 29.80F  
MERTZON 3NNE N/A 59 49 71 NE3 29.79F  
SAN ANGELO 7NW N/A 63 54 73 E8 29.78F  
STRLNG CT 4WSW N/A 65 56 73 SE8 29.78F  
ST LAWRNCE 5SW N/A 67 58 72 SE17 29.76F  
SWEETWATR 11SW N/A 64 60 86 SE13 29.79F  
WALL 1E N/A 65 60 83 SE7 29.79F  

 
 
TXZ055-058-074-075-080-082-281000-  
TEXAS TECH WEST TEXAS MESONET/FAR WEST/SOUTHWEST MOUNTAINS/TRANS PECOS  
 
CITY SKY/WX TMP DP RH WIND PRES REMARKS
 
PRSMN GAP BBNP N/A 67 53 59 NE10 29.74F  
GUADLPE MTN NP N/A 61 23 23 W12 29.84F  

 
 
 
CLICK HERE TO GO TO PREVIOUS BULLETINS.

The Nexlab TX Page Main Text Page